Regional Weather Roundup
Issued by NWS

Home | Current Version | Previous Version | Graphics & Text | Print | Product List | Glossary Off
Versions: 1 2 3 4 5 6 7 8 9 10 11 12 13 14 15 16 17 18 19 20 21 22 23 24 25 26 27

000
ASUS45 KCYS 242310
RWRWY

WYOMING REGIONAL WEATHER ROUNDUP
NATIONAL WEATHER SERVICE CHEYENNE WY
500 PM MDT TUE MAY 24 2016

NOTE:  "FAIR" INDICATES FEW OR NO CLOUDS BELOW 12,000 FEET
WITH NO SIGNIFICANT WEATHER AND/OR OBSTRUCTIONS TO VISIBILITY.

WYZ001-250000-
YELLOWSTONE NATIONAL PARK

CITY           SKY/WX    TMP DP  RH WIND       PRES   REMARKS
LK YELLOWSTONE   N/A     44  33  65 MISG      29.97R
W YELLOWSTONE  NOT AVBL

$$
WYZ002>013-054>058-071-098>099-250000-
NORTHERN WYOMING

CITY           SKY/WX    TMP DP  RH WIND       PRES   REMARKS
JACKSON        LGT RAIN  43  39  87 S17       29.96R
CODY           FAIR      54  43  66 N8        29.87F
GREYBULL       CLOUDY    67  34  29 NW35G43   29.76R
WORLAND        FAIR      71  32  23 VRB3      29.74S
SHERIDAN       FAIR      69  39  33 VRB7      29.80F
BUFFALO        CLOUDY    58  39  49 W17       29.85F
GILLETTE       FAIR      70  34  26 E6        29.79F
HULETT         CLOUDY    68  36  30 E7        29.83F
NEWCASTLE      RAIN      59  43  55 S22G31    29.90R

$$
WYZ014>020-022>026-101>103-250000-
CENTRAL WYOMING

CITY           SKY/WX    TMP DP  RH WIND       PRES   REMARKS
BIG PINEY      FAIR      47  38  71 VRB6      29.95R
PINEDALE       MOCLDY    36  36 100 NE21G26   29.96F WCI  24
DUBOIS         CLOUDY    43  34  70 N13G18    29.92F
LANDER         FAIR      52  40  63 N16       29.81F
RIVERTON       TSTM      51  40  65 W31G51    29.84R
CASPER         FAIR      70  31  23 S13       29.78F
DOUGLAS        FAIR      66  44  45 SE14      29.82S

$$
WYZ021-027>030-104>119-250000-
SOUTHERN WYOMING

CITY           SKY/WX    TMP DP  RH WIND       PRES   REMARKS
EVANSTON       FAIR      52  35  52 NW17G24   29.92F
KEMMERER         N/A     43  34  70 W21G31    29.96R
FORT BRIDGER   FAIR      57  37  47 NW22G30   29.95F
ROCK SPRINGS   FAIR      54  34  46 W21G28    29.92F
DIXON          FAIR      68  23  18 SW17G29   29.89S
RAWLINS        PTSUNNY   64  20  18 SW21G29   29.86F
SARATOGA       MOCLDY    61  23  23 S14G24    29.91R
LARAMIE        FAIR      61  38  42 SE24G32   29.89S
CHEYENNE       FAIR      63  43  48 SE21G28   29.89F
TORRINGTON     FAIR      76  44  32 S30G40    29.77F
PINE BLUFFS    TSTM      54  46  76 S20G29    29.95R

$$




USA.gov is the U.S. government's official web portal to all federal, state and local government web resources and services.